Wind_Speed
10 9 4 0 3 4 1 2 2 3 5 2 7 3 8 7 3 4 25 20 19 18 17 16 15 15 14 14 14 14 13 13 13 14 12 12 11 10 10 11 11 10 9 9 8 7 7 7 8
9 8 1 1 3 2 2 4 4 4 9 19 14 11 7 4 7 21 22 24 20 19 18 16 13 13 13 13 13 14 13 12 13 14 12 12 12 10 11 11 11 11 10 9 8 7 7 7 8
10 6 2 2 2 1 2 3 5 7 16 3 6 10 5 4 14 25 27 25 22 19 18 16 13 12 13 13 14 13 12 13 13 13 11 11 11 12 12 12 12 11 10 9 8 7 7 7 6
7 1 1 2 1 1 2 4 10 13 5 3 15 10 8 9 23 21 26 24 22 18 14 14 13 13 13 12 13 12 13 13 14 14 13 12 12 12 13 11 9 9 8 8 7 5 4 3 2
6 1 2 3 3 2 4 12 14 6 5 9 4 5 6 18 18 26 24 23 21 18 16 14 13 13 12 11 13 14 13 14 14 13 13 14 14 12 10 9 9 7 7 6 5 4 3 1 1
2 0 3 2 2 2 4 7 5 5 7 9 10 11 7 14 23 24 22 21 20 18 16 14 13 13 12 13 13 13 13 13 13 13 13 12 11 10 8 7 6 6 5 5 4 3 1 1 4
3 2 2 4 3 2 2 5 6 6 10 6 16 5 12 19 25 23 23 20 18 16 15 14 14 12 11 13 13 12 12 13 13 12 12 11 11 8 7 6 5 4 3 2 1 1 2 2 4
2 3 2 3 4 2 6 3 12 8 5 14 13 6 12 28 26 24 21 20 18 16 14 13 13 11 11 13 13 11 13 13 12 12 12 11 11 9 7 6 6 4 5 4 2 3 4 6 5
3 2 3 6 7 4 12 4 3 5 15 5 3 16 29 32 28 24 23 21 19 18 16 14 13 12 12 13 13 13 13 13 11 9 8 9 9 7 4 2 3 4 5 4 2 3 5 6 4
4 3 7 8 7 6 10 9 7 6 10 7 14 19 32 31 28 27 25 23 21 19 17 14 13 13 12 13 13 14 11 9 8 8 7 7 7 5 5 5 6 7 8 6 5 4 6 7 5
5 4 4 4 11 22 13 7 5 14 2 8 21 32 35 33 28 26 25 22 21 19 17 15 14 14 14 15 14 10 10 13 9 8 8 7 6 8 7 8 7 7 7 9 4 3 4 4 3
2 2 5 12 16 15 9 8 8 6 4 6 23 36 37 33 29 27 26 22 21 19 18 17 16 16 14 12 10 9 10 11 9 10 10 11 9 10 12 9 10 11 6 5 7 3 3 2 3
3 3 8 19 21 17 13 8 6 6 4 13 28 31 34 30 29 24 22 20 19 20 18 18 17 14 10 10 10 12 12 12 11 10 9 11 14 13 13 11 9 13 10 6 3 2 1 3 5
9 17 15 16 14 10 9 4 1 6 10 21 27 27 27 29 28 25 24 21 21 20 19 20 16 13 12 11 13 11 10 9 7 6 7 9 11 14 13 12 12 10 12 10 4 4 3 4 5
14 7 8 6 5 4 16 4 3 15 15 18 23 28 26 25 25 26 25 22 23 21 20 18 16 14 10 10 11 9 7 7 5 3 6 8 8 11 14 12 13 13 11 10 7 3 5 6 7
6 5 4 3 6 9 4 3 5 15 19 17 19 22 24 23 24 23 23 22 23 23 22 18 16 13 11 9 11 10 6 5 4 1 3 6 7 10 14 14 13 12 11 10 8 9 7 7 7
5 4 3 2 12 5 2 2 11 18 19 19 17 20 21 22 23 22 23 24 25 23 21 19 15 12 11 10 11 11 8 6 5 2 3 5 9 11 12 15 13 12 10 11 9 9 10 8 9
5 3 1 5 8 5 6 3 11 21 19 20 21 21 21 21 22 22 24 24 25 24 21 19 17 13 12 12 11 12 13 10 8 5 4 5 9 9 11 13 15 13 12 12 13 10 11 11 12
6 3 6 3 6 5 7 5 13 20 18 17 20 22 22 23 19 19 22 24 24 25 26 24 21 18 16 15 14 14 14 12 10 9 6 5 5 8 10 12 12 14 13 13 15 16 16 14 15
5 3 3 1 3 3 5 2 8 17 20 22 23 23 25 24 23 24 24 24 25 24 27 30 24 23 21 18 16 16 14 14 11 11 8 7 7 9 12 12 10 11 13 16 16 18 16 17 17
4 6 5 2 4 3 6 3 5 8 16 19 23 27 27 29 27 26 27 27 25 25 26 31 28 25 23 19 18 17 17 15 12 10 10 9 10 11 10 10 12 13 14 16 17 17 16 18 17
4 8 6 8 4 3 3 4 5 8 15 17 24 27 30 31 31 29 28 29 27 25 23 26 28 29 27 24 22 20 19 17 13 12 12 12 12 12 12 13 14 14 15 19 20 20 18 18 18
9 7 8 4 2 4 0 1 6 8 9 18 24 29 32 32 33 32 32 30 29 27 25 25 27 30 30 28 26 23 22 19 15 15 16 15 13 12 12 14 13 14 16 17 18 18 18 18 17
6 7 7 5 4 1 7 6 5 6 11 16 21 29 34 34 32 31 29 29 30 29 27 27 28 30 31 30 28 26 24 21 18 17 16 15 14 12 13 14 15 15 17 18 19 21 20 18 16
6 7 1 1 1 5 3 2 11 7 8 13 22 28 33 34 33 32 31 32 31 32 31 30 31 33 32 32 30 28 25 23 21 17 17 17 17 17 17 15 16 18 19 19 21 21 18 17 16
8 9 6 6 4 3 4 6 7 6 14 24 30 32 34 35 34 33 32 32 32 31 32 32 34 34 34 33 31 28 26 25 22 19 18 19 19 19 15 13 16 18 17 20 20 19 20 17 18
5 6 8 7 2 3 3 8 10 1 6 15 22 23 30 36 36 34 32 31 31 31 33 34 35 34 34 32 30 28 26 25 23 19 19 19 18 17 16 17 19 16 20 19 19 19 18 19 20
9 9 4 2 3 2 5 5 6 4 8 10 11 25 32 35 36 36 35 33 32 32 32 33 34 34 32 31 30 29 26 23 20 18 18 17 16 15 15 14 14 16 16 18 19 18 19 20 19
4 5 6 6 4 6 1 6 8 6 10 15 16 29 36 36 37 38 37 35 32 32 34 34 34 33 31 30 29 27 25 22 20 19 17 17 16 14 11 11 14 14 15 17 17 18 19 18 16
7 8 7 6 4 2 4 7 3 8 8 16 20 34 37 34 34 36 37 36 35 35 35 36 35 34 32 31 30 28 25 21 19 18 17 17 17 15 13 12 11 14 16 17 17 19 17 14 12
Wind_Direction
150 153 135 338 34 66 74 230 49 138 147 53 109 134 98 51 37 142 144 150 137 131 128 128 119 117 113 111 108 107 105 107 113 109 101 104 107 105 103 99 93 93 93 93 91 89 89 93 90
154 151 154 310 79 65 283 142 201 168 120 111 91 94 67 81 95 135 145 151 141 132 126 127 123 119 114 114 112 111 107 108 108 110 108 105 108 103 99 99 96 95 98 97 96 91 87 92 89
139 155 272 96 86 117 204 153 108 126 139 117 103 82 82 80 135 145 149 151 145 137 134 131 126 119 119 115 115 112 106 111 112 116 113 106 101 98 102 100 95 91 90 92 92 94 94 100 90
135 166 238 63 289 329 182 148 129 138 92 106 117 84 86 127 141 151 148 150 148 138 135 126 123 123 120 117 114 110 111 103 104 105 104 101 101 102 102 91 91 92 90 91 86 80 101 113 68
149 173 62 70 23 21 70 120 127 131 95 133 119 111 82 140 147 151 150 147 146 142 140 127 128 127 124 117 112 114 115 108 107 108 107 104 101 101 96 92 94 91 102 104 101 89 93 80 23
91 205 61 107 101 20 47 117 103 90 114 117 110 106 99 148 154 150 148 141 145 143 139 133 135 130 122 122 120 120 117 114 109 109 108 108 105 104 103 101 99 98 102 123 138 130 112 11 339
158 90 152 135 157 145 152 133 128 126 115 93 134 100 134 153 157 152 147 149 148 145 141 142 139 137 133 132 125 127 125 115 113 113 112 115 108 100 93 91 86 85 93 102 144 179 248 283 336
224 112 98 131 181 214 139 96 128 119 74 125 135 156 154 159 158 155 154 156 153 148 147 145 147 142 134 137 138 131 124 118 112 104 96 92 86 88 87 89 80 63 54 47 29 23 11 335 321
211 62 168 184 159 180 150 123 103 114 128 102 97 141 161 156 156 156 158 159 157 155 153 155 149 141 140 142 141 131 118 116 114 104 91 85 84 73 65 42 65 43 26 26 29 30 357 273 308
158 146 211 179 156 145 136 120 144 134 128 76 105 136 155 156 158 159 162 163 164 161 161 154 151 148 143 135 130 120 124 129 109 96 86 76 64 55 23 354 358 9 2 358 350 340 333 332 314
184 211 182 104 128 138 134 113 124 131 189 167 150 152 160 162 164 165 165 167 167 164 159 155 155 145 134 132 128 126 118 123 103 98 85 66 54 43 24 17 10 358 355 349 315 357 342 10 334
186 287 132 129 131 126 118 116 111 45 322 207 161 162 164 167 171 172 168 170 170 166 159 164 150 143 138 132 128 130 132 129 106 95 81 56 52 38 30 27 13 354 340 360 20 17 347 14 338
76 45 74 123 122 110 118 86 109 58 61 155 150 157 165 169 176 174 171 173 173 170 170 160 152 152 147 146 136 128 131 123 106 96 73 54 47 36 22 12 9 0 6 347 360 34 47 2 340
78 83 95 115 115 117 110 120 42 104 128 138 148 156 166 175 176 177 180 178 177 175 170 164 163 157 149 140 142 151 140 130 116 84 55 36 31 26 24 22 7 7 3 354 308 297 289 332 337
91 75 60 88 98 112 121 39 60 144 145 144 160 169 175 180 181 185 183 182 181 177 174 170 171 163 157 162 173 170 156 147 136 90 48 30 27 25 19 12 2 5 6 9 14 317 294 309 313
85 55 100 226 164 179 38 239 161 163 155 161 173 180 183 189 193 192 192 188 189 188 186 180 183 186 178 169 175 183 180 171 185 114 34 19 12 11 13 10 3 5 13 9 357 346 324 313 306
23 178 159 162 209 151 184 226 179 179 174 174 187 193 199 199 202 201 201 197 196 195 195 196 192 189 179 177 188 200 208 213 232 266 341 348 358 353 4 11 1 360 1 5 6 6 359 339 321
195 229 141 187 195 164 178 218 164 188 191 190 200 204 205 205 206 207 204 201 200 204 205 208 205 196 194 199 206 218 223 232 247 262 282 330 343 356 6 1 1 358 0 2 1 352 347 339 334
164 200 177 204 178 138 198 170 183 191 209 198 202 207 213 214 205 203 199 203 206 209 213 215 215 207 208 211 216 223 229 238 254 246 261 313 335 351 347 341 345 349 351 352 344 338 339 338 336
145 147 254 316 153 123 163 244 181 196 210 204 207 215 221 219 220 215 210 207 211 214 217 216 221 215 216 222 223 229 239 244 245 241 249 286 304 328 337 335 332 332 352 345 336 329 331 336 334
159 185 177 193 148 60 133 315 195 214 215 216 219 221 225 225 222 222 219 216 216 218 219 216 217 217 217 221 221 228 237 241 241 252 263 278 294 314 328 332 331 326 327 339 338 337 331 331 330
211 200 143 133 116 205 160 271 241 202 207 220 216 213 222 226 226 225 224 220 217 216 217 218 221 217 218 220 223 229 240 247 254 263 275 281 291 297 303 317 314 321 325 329 332 331 326 326 326
225 149 160 132 126 98 273 22 261 167 209 220 216 214 217 224 225 224 224 222 220 219 218 218 215 216 216 221 225 232 241 246 254 263 275 287 293 285 293 310 314 318 317 320 321 324 322 324 328
134 84 51 48 82 291 215 169 260 184 210 203 218 213 212 222 222 224 225 224 222 220 219 218 216 216 219 223 227 232 239 246 255 265 279 287 291 291 297 300 310 316 317 317 323 326 324 329 333
106 94 8 313 334 223 283 152 245 235 216 192 198 208 210 219 221 220 222 223 221 220 219 218 220 220 221 224 227 232 240 248 255 265 279 284 289 288 295 297 303 309 310 317 321 321 324 331 334
173 152 160 189 189 255 99 231 251 247 201 187 197 207 207 212 218 219 220 220 220 216 214 215 217 219 220 223 227 233 240 248 255 263 276 283 287 288 284 290 302 308 311 317 318 322 324 331 332
182 154 180 98 7 62 244 289 296 91 137 159 179 184 199 207 212 216 217 217 217 215 213 212 214 217 221 224 228 233 240 248 256 263 274 280 281 281 275 281 298 307 315 318 319 323 324 325 325
167 151 94 1 137 203 280 280 248 307 190 173 160 180 203 205 209 214 215 212 211 212 211 213 216 218 220 225 230 236 242 248 255 260 266 273 273 277 279 279 290 307 309 315 318 319 322 324 327
129 135 54 115 126 169 218 262 216 228 198 180 185 190 200 202 206 211 214 214 213 214 217 218 220 222 224 227 232 237 241 245 251 255 258 259 261 267 265 276 293 300 309 313 313 319 322 324 328
161 165 141 131 217 169 152 270 244 231 190 180 189 194 203 204 207 211 213 215 217 216 220 223 225 225 225 229 231 235 239 242 243 246 247 247 250 256 267 275 286 297 305 309 318 322 322 325 332
Height
1505 1506 1507 1507 1514 1514 1526 1521 1516 1516 1517 1518 1520 1523 1527 1532 1533 1543 1542 1547 1549 1550 1552 1555 1556 1556 1556 1557 1557 1557 1557 1558 1559 1559 1560 1560 1559 1560 1560 1561 1561 1561 1561 1562 1562 1562 1562 1562 1563
1505 1506 1508 1508 1518 1527 1524 1514 1518 1514 1517 1520 1521 1525 1529 1535 1535 1537 1543 1547 1550 1552 1554 1556 1557 1558 1559 1559 1559 1559 1560 1560 1561 1562 1562 1562 1562 1562 1563 1563 1563 1563 1564 1564 1564 1564 1565 1566 1566
1505 1507 1509 1510 1517 1525 1521 1512 1512 1517 1518 1519 1524 1526 1531 1536 1537 1539 1543 1547 1551 1554 1556 1557 1559 1560 1561 1561 1562 1562 1562 1562 1563 1564 1564 1564 1564 1565 1565 1565 1566 1566 1566 1567 1567 1567 1567 1568 1568
1506 1509 1511 1515 1516 1510 1510 1510 1512 1519 1520 1522 1523 1529 1534 1537 1539 1542 1545 1549 1553 1557 1559 1559 1561 1562 1563 1563 1564 1564 1564 1564 1565 1565 1565 1566 1567 1568 1568 1568 1568 1569 1569 1569 1569 1570 1570 1570 1570
1507 1509 1512 1515 1516 1510 1509 1511 1514 1518 1521 1524 1526 1531 1535 1540 1541 1545 1548 1551 1555 1558 1560 1561 1562 1563 1564 1565 1565 1565 1566 1566 1567 1567 1568 1568 1569 1569 1570 1570 1570 1571 1571 1571 1571 1571 1571 1572 1571
1507 1508 1518 1526 1517 1514 1512 1514 1516 1520 1524 1526 1528 1531 1539 1541 1544 1547 1551 1554 1557 1559 1561 1563 1564 1565 1566 1566 1567 1567 1567 1568 1570 1570 1570 1571 1571 1571 1571 1571 1571 1571 1572 1572 1572 1572 1572 1572 1572
1505 1508 1515 1518 1518 1517 1515 1517 1519 1522 1525 1527 1529 1533 1540 1543 1546 1549 1553 1556 1558 1561 1563 1564 1565 1566 1567 1568 1568 1569 1569 1570 1571 1572 1572 1572 1572 1573 1573 1572 1572 1572 1572 1573 1574 1573 1572 1572 1572
1504 1506 1512 1513 1521 1518 1515 1517 1520 1521 1527 1528 1530 1533 1539 1542 1547 1551 1555 1557 1560 1562 1565 1566 1566 1567 1568 1569 1570 1570 1571 1572 1574 1574 1575 1575 1574 1574 1574 1573 1573 1573 1573 1573 1573 1573 1573 1572 1571
1505 1512 1518 1514 1516 1513 1514 1517 1521 1524 1525 1529 1530 1532 1535 1540 1548 1552 1555 1558 1561 1563 1565 1566 1567 1568 1569 1570 1571 1572 1574 1575 1576 1576 1577 1576 1576 1576 1575 1574 1574 1573 1573 1573 1572 1573 1573 1571 1571
1503 1513 1506 1498 1502 1508 1514 1517 1521 1525 1527 1531 1531 1534 1540 1543 1548 1551 1555 1558 1561 1563 1565 1567 1569 1569 1570 1572 1573 1575 1576 1577 1578 1578 1578 1577 1576 1577 1576 1575 1574 1575 1574 1573 1572 1572 1572 1571 1570
1499 1504 1495 1499 1501 1507 1513 1518 1521 1523 1527 1529 1530 1533 1539 1545 1549 1552 1555 1559 1562 1564 1566 1568 1569 1571 1573 1574 1575 1576 1577 1578 1579 1579 1579 1579 1578 1577 1577 1576 1576 1576 1575 1573 1571 1572 1572 1571 1570
1499 1495 1495 1500 1503 1509 1515 1518 1521 1524 1526 1525 1528 1533 1538 1544 1548 1551 1555 1559 1562 1565 1567 1568 1571 1573 1574 1575 1576 1577 1578 1579 1579 1580 1580 1579 1578 1577 1577 1577 1576 1575 1574 1573 1572 1571 1571 1571 1571
1498 1498 1499 1501 1505 1511 1515 1519 1522 1525 1524 1525 1529 1536 1540 1545 1549 1554 1557 1560 1563 1565 1567 1569 1572 1574 1574 1576 1577 1578 1579 1580 1580 1581 1581 1580 1579 1578 1577 1577 1576 1575 1573 1572 1571 1571 1572 1572 1571
1500 1500 1505 1508 1511 1513 1517 1521 1522 1527 1527 1530 1532 1536 1541 1545 1549 1554 1557 1560 1562 1564 1567 1570 1572 1574 1575 1577 1578 1579 1580 1581 1582 1582 1582 1581 1580 1579 1578 1578 1577 1575 1573 1571 1570 1570 1570 1570 1569
1502 1511 1511 1514 1514 1518 1517 1524 1526 1527 1529 1532 1535 1537 1541 1545 1549 1553 1555 1558 1561 1564 1567 1569 1571 1574 1575 1577 1578 1579 1581 1582 1582 1582 1582 1581 1581 1580 1579 1578 1577 1575 1573 1571 1570 1569 1569 1569 1568
1509 1514 1526 1515 1516 1517 1518 1529 1526 1527 1527 1532 1536 1538 1541 1544 1547 1551 1554 1558 1560 1563 1566 1569 1571 1573 1575 1577 1578 1580 1581 1581 1582 1582 1582 1582 1582 1581 1580 1578 1577 1575 1574 1572 1571 1570 1569 1568 1568
1516 1527 1522 1519 1512 1514 1519 1526 1524 1526 1527 1530 1534 1537 1540 1543 1546 1548 1552 1555 1558 1562 1565 1568 1570 1572 1575 1576 1578 1579 1580 1581 1582 1583 1583 1583 1582 1581 1580 1579 1577 1575 1574 1572 1571 1570 1569 1568 1567
1521 1520 1518 1518 1511 1513 1519 1520 1523 1525 1526 1527 1531 1534 1537 1539 1540 1544 1549 1552 1556 1560 1563 1566 1569 1571 1573 1575 1577 1578 1579 1581 1581 1582 1583 1583 1582 1582 1580 1579 1577 1575 1574 1572 1571 1570 1569 1567 1566
1503 1509 1512 1507 1504 1511 1516 1518 1520 1522 1525 1526 1528 1531 1533 1536 1538 1542 1546 1549 1553 1557 1560 1562 1566 1569 1571 1573 1575 1576 1577 1580 1581 1582 1582 1582 1582 1582 1580 1578 1577 1576 1574 1573 1571 1570 1569 1568 1565
1501 1509 1512 1506 1504 1508 1515 1516 1518 1519 1518 1520 1523 1526 1529 1533 1535 1539 1542 1545 1548 1552 1555 1559 1562 1566 1569 1571 1573 1574 1576 1578 1579 1580 1581 1582 1582 1581 1579 1578 1577 1576 1574 1573 1571 1569 1567 1566 1564
1503 1508 1509 1508 1506 1508 1513 1519 1518 1514 1516 1518 1520 1522 1525 1528 1531 1534 1537 1541 1545 1548 1551 1555 1559 1563 1566 1569 1571 1572 1573 1575 1578 1579 1581 1581 1581 1580 1579 1578 1577 1575 1574 1572 1570 1568 1566 1565 1564
1506 1491 1496 1503 1515 1528 1508 1538 1517 1509 1510 1512 1512 1515 1518 1522 1526 1529 1533 1537 1540 1544 1549 1552 1556 1559 1563 1566 1568 1569 1571 1573 1576 1578 1579 1580 1580 1579 1578 1577 1576 1574 1573 1571 1569 1567 1566 1564 1562
1492 1486 1494 1500 1512 1515 1517 1530 1507 1502 1510 1504 1502 1505 1510 1515 1519 1523 1527 1532 1537 1542 1545 1549 1552 1555 1559 1562 1564 1566 1568 1571 1574 1576 1577 1579 1579 1578 1578 1576 1575 1573 1572 1570 1569 1566 1564 1563 1561
1481 1490 1503 1513 1523 1539 1519 1519 1504 1505 1487 1489 1492 1497 1502 1508 1513 1518 1523 1529 1533 1538 1542 1545 1548 1551 1555 1558 1560 1562 1565 1568 1571 1573 1575 1576 1576 1576 1576 1574 1573 1572 1571 1569 1567 1565 1563 1560 1558
1484 1501 1535 1539 1542 1538 1516 1520 1490 1476 1472 1473 1480 1489 1495 1501 1508 1513 1518 1522 1527 1531 1536 1540 1543 1546 1550 1553 1556 1559 1562 1566 1568 1570 1572 1573 1573 1574 1573 1572 1571 1570 1568 1567 1565 1563 1560 1559 1557
1486 1493 1528 1540 1544 1528 1517 1521 1486 1459 1460 1466 1473 1479 1489 1496 1501 1507 1512 1517 1522 1527 1531 1535 1538 1541 1545 1548 1552 1556 1559 1562 1565 1567 1569 1570 1570 1570 1570 1570 1569 1568 1567 1565 1564 1561 1559 1557 1555
1484 1496 1487 1520 1521 1526 1515 1496 1468 1458 1461 1465 1470 1478 1485 1490 1495 1501 1507 1512 1517 1522 1525 1529 1533 1537 1540 1544 1549 1552 1555 1559 1561 1564 1566 1567 1567 1567 1567 1567 1567 1566 1565 1564 1562 1560 1558 1556 1554
1460 1467 1500 1517 1527 1532 1520 1507 1496 1463 1465 1463 1469 1473 1480 1485 1491 1496 1502 1508 1513 1518 1522 1526 1529 1532 1537 1541 1545 1548 1552 1555 1558 1560 1562 1563 1564 1564 1564 1564 1565 1565 1563 1562 1560 1558 1556 1553 1551
1466 1477 1490 1495 1510 1528 1535 1513 1466 1457 1457 1458 1461 1467 1474 1479 1485 1491 1498 1504 1509 1514 1518 1522 1525 1530 1534 1537 1541 1544 1548 1552 1555 1556 1559 1560 1561 1561 1561 1562 1563 1562 1561 1560 1558 1557 1554 1551 1549
1445 1464 1471 1501 1511 1516 1517 1499 1453 1451 1450 1456 1459 1463 1470 1475 1481 1487 1494 1500 1504 1509 1513 1516 1521 1526 1529 1533 1537 1540 1544 1548 1550 1553 1555 1557 1557 1558 1560 1560 1560 1560 1559 1558 1556 1554 1551 1549 1548